Language: 


Des rapports , des résumés tant et plus, au choix de chacun....


Données statistiques de la station
Quotidien Rapport Octobre 2, 2017 Unités:  Métrique    Anglais   les deux
« Précédent Jour
Suivant Jour »
Quotidien Hebdomadaire Mensuel Annuel Actuel
  Haut: Bas: Moyen:
Température: 20.2 °C 0.0 °C 14.6 °C
Pt de rosée: 16.0 °C 10.0 °C 13.7 °C
Humidité: 98 % 0 % 71 %
Vitesse du vent: 40.4 km/h 6.1 km/h 16.2 km/h
Rafales: 43.6 km/h - -
Vent:- - WSW
Pression: 1015.1 hPa 1011.1 hPa -
Précipitation: 4.3 mm    
Historical Graphs
 
 
Données statistiques pour Octobre 2, 2017
Heure Température Point de rosée Pression Vent Vitesse du vent Refales Humidité Pluie (taux horaire)
00:01 16.1 °C 16.0 °C 1012.1 hPa South 12.6 km/h 20.6 km/h 96 % 0.0 mm
00:06 16.1 °C 16.0 °C 1012.1 hPa SSW 9.3 km/h 20.6 km/h 96 % 0.0 mm
00:09 16.1 °C 16.0 °C 1012.1 hPa SW 8.7 km/h 17.7 km/h 96 % 0.0 mm
00:14 16.1 °C 16.0 °C 1012.1 hPa SSW 12.2 km/h 17.7 km/h 96 % 0.0 mm
00:16 16.1 °C 16.0 °C 1013.1 hPa SSW 10.1 km/h 17.7 km/h 96 % 0.0 mm
00:22 16.1 °C 16.0 °C 1013.1 hPa SSW 11.9 km/h 17.2 km/h 96 % 0.0 mm
00:27 16.1 °C 16.0 °C 1013.1 hPa South 11.1 km/h 15.8 km/h 96 % 0.0 mm
00:37 16.1 °C 16.0 °C 1013.1 hPa SSW 16.3 km/h 24.8 km/h 96 % 0.0 mm
00:42 16.1 °C 16.0 °C 1013.1 hPa SSW 15.1 km/h 24.8 km/h 96 % 0.0 mm
00:47 16.1 °C 16.0 °C 1013.1 hPa SW 12.2 km/h 23.3 km/h 96 % 0.0 mm
00:52 16.1 °C 16.0 °C 1013.1 hPa WSW 13.0 km/h 23.3 km/h 96 % 0.0 mm
00:57 16.1 °C 16.0 °C 1013.1 hPa SSW 9.0 km/h 20.9 km/h 96 % 0.0 mm
01:02 16.1 °C 16.0 °C 1013.1 hPa South 6.4 km/h 20.9 km/h 96 % 0.0 mm
01:07 16.1 °C 16.0 °C 1013.1 hPa WSW 9.3 km/h 17.2 km/h 96 % 0.0 mm
01:12 16.1 °C 16.0 °C 1013.1 hPa SSW 9.3 km/h 17.2 km/h 96 % 0.0 mm
01:17 16.1 °C 16.0 °C 1013.1 hPa SSW 7.9 km/h 17.2 km/h 96 % 0.0 mm
01:22 16.1 °C 16.0 °C 1013.1 hPa SSW 12.2 km/h 19.8 km/h 96 % 0.0 mm
01:27 16.1 °C 16.0 °C 1013.1 hPa SW 11.9 km/h 19.8 km/h 96 % 0.0 mm
01:32 16.1 °C 16.0 °C 1013.1 hPa SSW 10.8 km/h 16.6 km/h 96 % 0.0 mm
01:37 16.1 °C 16.0 °C 1013.1 hPa South 9.7 km/h 16.6 km/h 96 % 0.0 mm
01:42 16.1 °C 16.0 °C 1013.1 hPa SSW 11.6 km/h 13.7 km/h 96 % 0.0 mm
01:47 16.1 °C 16.0 °C 1013.1 hPa SSW 15.4 km/h 21.2 km/h 96 % 0.0 mm
01:52 16.1 °C 16.0 °C 1013.1 hPa South 12.2 km/h 21.2 km/h 96 % 0.0 mm
01:57 16.1 °C 16.0 °C 1013.1 hPa SSW 11.9 km/h 18.0 km/h 96 % 0.0 mm
02:07 16.1 °C 16.0 °C 1013.1 hPa SW 6.1 km/h 9.3 km/h 96 % 0.0 mm
02:13 16.1 °C 16.0 °C 1013.1 hPa SW 10.5 km/h 13.7 km/h 96 % 0.0 mm
02:18 16.1 °C 16.0 °C 1011.1 hPa South 15.4 km/h 15.4 km/h 96 % 0.0 mm
02:23 16.1 °C 16.0 °C 1011.1 hPa SW 11.9 km/h 15.4 km/h 96 % 0.0 mm
02:28 16.1 °C 16.0 °C 1011.1 hPa WSW 16.6 km/h 16.6 km/h 96 % 0.0 mm
02:33 16.1 °C 16.0 °C 1011.1 hPa SSW 13.0 km/h 16.6 km/h 96 % 0.0 mm
02:38 16.1 °C 16.0 °C 1011.1 hPa SW 8.7 km/h 16.6 km/h 96 % 0.0 mm
02:43 16.1 °C 16.0 °C 1011.1 hPa SSW 8.7 km/h 15.8 km/h 96 % 0.0 mm
02:48 16.1 °C 16.0 °C 1012.1 hPa WSW 14.0 km/h 16.3 km/h 96 % 0.0 mm
02:53 16.1 °C 16.0 °C 1012.1 hPa South 9.7 km/h 17.7 km/h 96 % 0.0 mm
02:58 16.1 °C 16.0 °C 1012.1 hPa SSW 11.1 km/h 21.2 km/h 96 % 0.0 mm
03:03 0.0 °C 16.0 °C 1012.1 hPa SSW 10.5 km/h 21.2 km/h 0 % 0.0 mm
03:08 0.0 °C 16.0 °C 1012.1 hPa SSW 12.2 km/h 17.2 km/h 0 % 0.0 mm
03:13 0.0 °C 16.0 °C 1012.1 hPa SSW 12.6 km/h 17.7 km/h 0 % 0.0 mm
03:18 0.0 °C 16.0 °C 1012.1 hPa SW 18.3 km/h 18.3 km/h 0 % 0.0 mm
03:23 0.0 °C 16.0 °C 1012.1 hPa WSW 13.7 km/h 18.3 km/h 0 % 0.0 mm
03:28 0.0 °C 16.0 °C 1012.1 hPa SW 17.7 km/h 18.3 km/h 0 % 0.0 mm
03:33 0.0 °C 16.0 °C 1013.1 hPa SW 10.5 km/h 20.9 km/h 0 % 0.0 mm
03:38 0.0 °C 16.0 °C 1013.1 hPa SW 11.9 km/h 20.9 km/h 0 % 0.0 mm
03:43 0.0 °C 16.0 °C 1013.1 hPa WSW 9.0 km/h 14.0 km/h 0 % 0.0 mm
03:48 0.0 °C 16.0 °C 1012.1 hPa SSW 9.7 km/h 14.0 km/h 0 % 0.0 mm
03:53 0.0 °C 16.0 °C 1012.1 hPa WSW 14.0 km/h 14.0 km/h 0 % 0.0 mm
03:58 0.0 °C 16.0 °C 1012.1 hPa WSW 12.6 km/h 14.0 km/h 0 % 0.0 mm
04:03 0.0 °C 16.0 °C 1012.1 hPa WSW 14.8 km/h 19.8 km/h 0 % 0.0 mm
04:08 0.0 °C 16.0 °C 1012.1 hPa WSW 17.2 km/h 23.8 km/h 0 % 0.0 mm
04:13 0.0 °C 16.0 °C 1012.1 hPa WSW 16.9 km/h 24.8 km/h 0 % 0.0 mm
04:18 0.0 °C 16.0 °C 1012.1 hPa WSW 15.4 km/h 24.8 km/h 0 % 0.0 mm
04:23 0.0 °C 16.0 °C 1012.1 hPa WSW 15.4 km/h 22.4 km/h 0 % 0.0 mm
04:28 0.0 °C 16.0 °C 1012.1 hPa WSW 9.7 km/h 21.2 km/h 0 % 0.0 mm
04:33 0.0 °C 16.0 °C 1012.1 hPa WSW 20.6 km/h 21.2 km/h 0 % 0.0 mm
04:39 0.0 °C 16.0 °C 1012.1 hPa WSW 14.0 km/h 20.6 km/h 0 % 0.0 mm
04:43 0.0 °C 16.0 °C 1012.1 hPa WSW 16.6 km/h 17.2 km/h 0 % 0.0 mm
04:48 0.0 °C 16.0 °C 1011.1 hPa WSW 12.2 km/h 19.8 km/h 0 % 0.0 mm
04:54 0.0 °C 16.0 °C 1011.1 hPa West 14.0 km/h 19.8 km/h 0 % 0.0 mm
04:59 0.0 °C 16.0 °C 1011.1 hPa WSW 14.3 km/h 16.9 km/h 0 % 0.0 mm
05:04 0.0 °C 16.0 °C 1011.1 hPa WSW 14.0 km/h 22.7 km/h 0 % 0.0 mm
05:09 0.0 °C 16.0 °C 1011.1 hPa West 21.6 km/h 22.7 km/h 0 % 0.0 mm
05:14 0.0 °C 16.0 °C 1011.1 hPa SSW 16.3 km/h 26.2 km/h 0 % 0.0 mm
05:19 0.0 °C 16.0 °C 1012.1 hPa West 20.9 km/h 27.4 km/h 0 % 0.0 mm
05:23 0.0 °C 16.0 °C 1012.1 hPa West 20.1 km/h 27.4 km/h 0 % 0.0 mm
05:24 0.0 °C 16.0 °C 1012.1 hPa WSW 15.8 km/h 27.4 km/h 0 % 0.0 mm
05:29 0.0 °C 16.0 °C 1012.1 hPa WSW 17.2 km/h 26.2 km/h 0 % 0.0 mm
05:31 0.0 °C 16.0 °C 1012.1 hPa WSW 12.6 km/h 26.2 km/h 0 % 0.0 mm
05:36 0.0 °C 16.0 °C 1012.1 hPa SW 12.2 km/h 19.5 km/h 0 % 0.0 mm
05:41 0.0 °C 16.0 °C 1012.1 hPa WSW 8.7 km/h 19.5 km/h 0 % 0.0 mm
05:46 0.0 °C 16.0 °C 1012.1 hPa SW 11.6 km/h 23.0 km/h 0 % 0.0 mm
05:51 0.0 °C 16.0 °C 1012.1 hPa WSW 9.0 km/h 23.0 km/h 0 % 0.0 mm
05:56 0.0 °C 16.0 °C 1012.1 hPa West 12.2 km/h 15.8 km/h 0 % 0.0 mm
06:01 16.5 °C 15.0 °C 1012.1 hPa WSW 7.9 km/h 14.0 km/h 92 % 0.0 mm
06:06 16.5 °C 15.0 °C 1012.1 hPa WSW 8.7 km/h 14.0 km/h 92 % 0.0 mm
06:11 16.5 °C 15.0 °C 1012.1 hPa WSW 13.7 km/h 21.2 km/h 92 % 0.0 mm
06:16 16.5 °C 15.0 °C 1012.1 hPa WSW 12.6 km/h 21.2 km/h 92 % 0.0 mm
06:21 16.5 °C 15.0 °C 1012.1 hPa WSW 16.6 km/h 21.2 km/h 92 % 0.0 mm
06:26 16.5 °C 15.0 °C 1012.1 hPa WSW 12.2 km/h 20.6 km/h 92 % 0.0 mm
06:31 16.5 °C 15.0 °C 1012.1 hPa WNW 16.6 km/h 20.6 km/h 92 % 0.0 mm
06:36 16.5 °C 15.0 °C 1012.1 hPa WSW 17.7 km/h 17.7 km/h 92 % 0.0 mm
06:41 16.5 °C 15.0 °C 1012.1 hPa WSW 14.0 km/h 17.7 km/h 92 % 0.0 mm
06:46 16.5 °C 15.0 °C 1012.1 hPa WSW 12.2 km/h 16.9 km/h 92 % 0.0 mm
06:51 16.5 °C 15.0 °C 1012.1 hPa WSW 14.3 km/h 20.6 km/h 92 % 0.0 mm
06:56 16.5 °C 15.0 °C 1012.1 hPa WSW 10.8 km/h 20.6 km/h 92 % 0.0 mm
07:01 16.5 °C 15.0 °C 1013.1 hPa WSW 10.1 km/h 15.4 km/h 92 % 0.0 mm
07:06 16.5 °C 15.0 °C 1013.1 hPa WSW 12.6 km/h 16.3 km/h 92 % 0.0 mm
07:11 16.5 °C 15.0 °C 1013.1 hPa SW 16.9 km/h 16.9 km/h 92 % 0.0 mm
07:16 16.5 °C 15.0 °C 1012.1 hPa WSW 16.9 km/h 20.1 km/h 92 % 0.0 mm
07:21 16.3 °C 15.0 °C 1012.1 hPa WSW 14.0 km/h 20.1 km/h 91 % 0.0 mm
07:26 16.3 °C 15.0 °C 1012.1 hPa WSW 12.2 km/h 17.7 km/h 91 % 0.0 mm
07:32 16.3 °C 15.0 °C 1012.1 hPa SW 14.0 km/h 14.0 km/h 91 % 0.0 mm
07:37 16.3 °C 15.0 °C 1012.1 hPa WSW 12.2 km/h 19.5 km/h 91 % 0.0 mm
07:42 16.3 °C 15.0 °C 1012.1 hPa WSW 13.0 km/h 19.5 km/h 91 % 0.0 mm
07:47 16.3 °C 15.0 °C 1013.1 hPa WSW 16.3 km/h 16.3 km/h 91 % 0.0 mm
07:52 16.3 °C 15.0 °C 1013.1 hPa West 12.2 km/h 24.8 km/h 91 % 0.0 mm
07:57 16.3 °C 15.0 °C 1013.1 hPa SSW 10.5 km/h 24.8 km/h 91 % 0.0 mm
08:02 16.3 °C 15.0 °C 1013.1 hPa WSW 11.6 km/h 20.9 km/h 91 % 0.0 mm
08:07 16.2 °C 15.0 °C 1013.1 hPa SW 9.3 km/h 20.9 km/h 91 % 0.0 mm
08:12 16.2 °C 15.0 °C 1013.1 hPa SW 10.5 km/h 13.7 km/h 91 % 0.0 mm
08:17 16.2 °C 15.0 °C 1013.1 hPa SW 14.3 km/h 17.7 km/h 91 % 0.0 mm
08:22 16.2 °C 15.0 °C 1013.1 hPa West 13.7 km/h 17.7 km/h 91 % 0.0 mm
08:27 16.2 °C 15.0 °C 1013.1 hPa WSW 8.7 km/h 16.9 km/h 91 % 0.0 mm
08:32 16.2 °C 15.0 °C 1012.1 hPa West 10.1 km/h 17.7 km/h 91 % 0.0 mm
08:37 16.2 °C 15.0 °C 1012.1 hPa West 13.0 km/h 18.3 km/h 91 % 0.0 mm
08:42 16.3 °C 15.0 °C 1012.1 hPa West 9.7 km/h 18.3 km/h 91 % 0.0 mm
08:47 16.3 °C 15.0 °C 1014.1 hPa WSW 10.1 km/h 16.9 km/h 91 % 0.0 mm
08:52 16.3 °C 15.0 °C 1014.1 hPa WSW 12.6 km/h 14.8 km/h 91 % 0.0 mm
08:57 16.3 °C 15.0 °C 1014.1 hPa WSW 11.9 km/h 14.8 km/h 91 % 0.0 mm
09:02 16.4 °C 15.0 °C 1013.1 hPa SW 18.3 km/h 18.3 km/h 90 % 0.0 mm
09:07 16.5 °C 15.0 °C 1013.1 hPa WSW 14.0 km/h 19.1 km/h 90 % 0.0 mm
09:12 16.5 °C 15.0 °C 1013.1 hPa WSW 13.7 km/h 19.1 km/h 90 % 0.0 mm
09:17 16.5 °C 15.0 °C 1013.1 hPa WSW 17.2 km/h 23.3 km/h 90 % 0.0 mm
09:22 16.5 °C 15.0 °C 1013.1 hPa WSW 9.3 km/h 23.3 km/h 90 % 0.0 mm
09:27 16.5 °C 15.0 °C 1013.1 hPa WSW 16.6 km/h 21.6 km/h 90 % 0.0 mm
09:32 16.6 °C 15.0 °C 1013.1 hPa SW 13.7 km/h 21.6 km/h 89 % 0.0 mm
09:38 16.6 °C 15.0 °C 1013.1 hPa WSW 12.6 km/h 17.7 km/h 89 % 0.0 mm
09:43 16.6 °C 15.0 °C 1013.1 hPa West 15.8 km/h 16.9 km/h 89 % 0.0 mm
09:48 16.6 °C 15.0 °C 1013.1 hPa WSW 15.8 km/h 20.6 km/h 89 % 0.0 mm
09:53 16.6 °C 15.0 °C 1013.1 hPa WSW 17.7 km/h 20.6 km/h 89 % 0.0 mm
09:58 16.7 °C 15.0 °C 1013.1 hPa SSW 16.6 km/h 20.9 km/h 87 % 0.0 mm
10:03 16.7 °C 15.0 °C 1013.1 hPa WSW 16.3 km/h 23.8 km/h 87 % 0.0 mm
10:08 16.7 °C 14.0 °C 1013.1 hPa West 13.0 km/h 23.8 km/h 86 % 0.0 mm
10:13 16.7 °C 14.0 °C 1013.1 hPa West 12.2 km/h 23.3 km/h 86 % 0.0 mm
10:18 16.7 °C 14.0 °C 1013.1 hPa WSW 13.0 km/h 23.3 km/h 86 % 0.0 mm
10:23 16.7 °C 14.0 °C 1013.1 hPa WSW 20.1 km/h 23.0 km/h 86 % 0.0 mm
10:28 16.7 °C 14.0 °C 1013.1 hPa WSW 22.4 km/h 23.0 km/h 86 % 0.0 mm
10:33 16.7 °C 14.0 °C 1013.1 hPa WSW 16.3 km/h 22.4 km/h 86 % 0.0 mm
10:38 16.7 °C 14.0 °C 1013.1 hPa WSW 22.4 km/h 22.4 km/h 86 % 0.0 mm
10:43 16.6 °C 14.0 °C 1013.1 hPa West 12.6 km/h 27.4 km/h 84 % 0.0 mm
10:48 16.6 °C 14.0 °C 1013.1 hPa WSW 12.6 km/h 27.4 km/h 84 % 0.0 mm
10:53 16.6 °C 14.0 °C 1013.1 hPa WSW 26.2 km/h 26.2 km/h 84 % 0.0 mm
10:58 17.8 °C 15.0 °C 1013.1 hPa WSW 19.8 km/h 26.2 km/h 82 % 0.0 mm
11:03 17.8 °C 15.0 °C 1013.1 hPa West 23.3 km/h 23.3 km/h 82 % 0.0 mm
11:05 17.8 °C 15.0 °C 1013.1 hPa West 17.2 km/h 23.3 km/h 82 % 0.0 mm
11:10 17.8 °C 15.0 °C 1013.1 hPa West 22.4 km/h 23.3 km/h 82 % 0.0 mm
11:15 17.8 °C 15.0 °C 1013.1 hPa WNW 27.7 km/h 30.9 km/h 82 % 0.0 mm
11:20 17.8 °C 15.0 °C 1013.1 hPa WNW 13.7 km/h 30.9 km/h 82 % 0.0 mm
11:25 17.8 °C 15.0 °C 1013.1 hPa West 16.3 km/h 27.7 km/h 82 % 0.0 mm
11:30 17.8 °C 15.0 °C 1013.1 hPa West 15.4 km/h 27.7 km/h 82 % 0.0 mm
11:35 17.8 °C 15.0 °C 1013.1 hPa WSW 16.3 km/h 22.4 km/h 82 % 0.0 mm
11:40 17.8 °C 15.0 °C 1013.1 hPa West 26.2 km/h 27.7 km/h 82 % 0.0 mm
11:45 17.8 °C 15.0 °C 1014.1 hPa WNW 12.2 km/h 27.7 km/h 82 % 0.0 mm
11:50 17.8 °C 15.0 °C 1014.1 hPa West 23.3 km/h 32.0 km/h 82 % 0.0 mm
11:55 18.2 °C 13.0 °C 1014.1 hPa WSW 21.2 km/h 32.0 km/h 71 % 0.0 mm
12:00 18.2 °C 13.0 °C 1014.1 hPa WSW 21.2 km/h 27.0 km/h 71 % 0.0 mm
12:05 19.2 °C 14.0 °C 1014.1 hPa West 21.2 km/h 30.2 km/h 72 % 0.0 mm
12:10 19.2 °C 14.0 °C 1014.1 hPa West 21.2 km/h 30.2 km/h 72 % 0.0 mm
12:15 19.2 °C 14.0 °C 1013.1 hPa WSW 21.9 km/h 28.8 km/h 72 % 0.0 mm
12:20 19.2 °C 14.0 °C 1013.1 hPa West 17.7 km/h 31.7 km/h 72 % 0.0 mm
12:25 19.2 °C 14.0 °C 1013.1 hPa WSW 23.0 km/h 32.3 km/h 72 % 0.0 mm
12:30 19.2 °C 14.0 °C 1014.1 hPa West 16.9 km/h 32.3 km/h 72 % 0.0 mm
12:35 19.2 °C 14.0 °C 1014.1 hPa West 24.8 km/h 39.3 km/h 72 % 0.0 mm
12:40 19.2 °C 14.0 °C 1014.1 hPa West 31.7 km/h 39.3 km/h 72 % 0.0 mm
12:45 19.7 °C 13.0 °C 1013.1 hPa WSW 17.2 km/h 32.0 km/h 65 % 0.0 mm
12:50 19.7 °C 13.0 °C 1013.1 hPa WSW 21.2 km/h 31.7 km/h 65 % 0.0 mm
12:55 19.7 °C 13.0 °C 1013.1 hPa WSW 31.7 km/h 37.8 km/h 65 % 0.0 mm
13:01 19.7 °C 13.0 °C 1014.1 hPa WNW 27.4 km/h 37.8 km/h 65 % 0.0 mm
13:06 20.2 °C 13.0 °C 1014.1 hPa WSW 27.7 km/h 39.3 km/h 60 % 0.0 mm
13:11 20.2 °C 12.0 °C 1014.1 hPa West 40.4 km/h 40.4 km/h 57 % 0.0 mm
13:16 20.2 °C 12.0 °C 1014.1 hPa West 32.0 km/h 41.4 km/h 57 % 0.0 mm
13:21 19.4 °C 10.0 °C 1014.1 hPa West 30.2 km/h 43.6 km/h 55 % 0.0 mm
13:26 19.4 °C 10.0 °C 1014.1 hPa West 21.2 km/h 43.6 km/h 55 % 0.0 mm
13:31 19.4 °C 10.0 °C 1014.1 hPa WSW 20.6 km/h 39.3 km/h 55 % 0.0 mm
13:36 19.4 °C 10.0 °C 1014.1 hPa West 28.8 km/h 36.0 km/h 55 % 0.0 mm
13:41 19.4 °C 10.0 °C 1014.1 hPa West 32.0 km/h 32.0 km/h 55 % 0.0 mm
13:46 19.4 °C 10.0 °C 1014.1 hPa WNW 27.7 km/h 32.0 km/h 55 % 0.0 mm
13:51 19.4 °C 10.0 °C 1014.1 hPa West 25.3 km/h 33.5 km/h 55 % 0.0 mm
13:56 19.4 °C 10.0 °C 1014.1 hPa West 22.4 km/h 33.5 km/h 55 % 0.0 mm
14:01 19.3 °C 10.0 °C 1014.1 hPa West 28.5 km/h 41.0 km/h 55 % 0.0 mm
14:06 19.3 °C 10.0 °C 1014.1 hPa West 21.2 km/h 41.0 km/h 55 % 0.0 mm
14:11 19.3 °C 10.0 °C 1014.1 hPa West 25.6 km/h 38.9 km/h 55 % 0.0 mm
14:16 19.3 °C 10.0 °C 1014.1 hPa WNW 26.7 km/h 38.1 km/h 55 % 0.0 mm
14:21 19.3 °C 10.0 °C 1014.1 hPa West 17.2 km/h 28.8 km/h 55 % 0.0 mm
14:26 19.3 °C 10.0 °C 1014.1 hPa West 22.4 km/h 35.6 km/h 55 % 0.0 mm
14:31 19.3 °C 10.0 °C 1013.1 hPa West 20.9 km/h 35.6 km/h 55 % 0.0 mm
14:37 19.3 °C 10.0 °C 1013.1 hPa SW 16.3 km/h 32.0 km/h 55 % 0.0 mm
14:42 19.3 °C 10.0 °C 1013.1 hPa SW 19.8 km/h 32.0 km/h 55 % 0.0 mm
14:47 19.3 °C 10.0 °C 1013.1 hPa West 16.3 km/h 30.9 km/h 55 % 0.0 mm
14:52 19.3 °C 10.0 °C 1013.1 hPa West 25.3 km/h 34.6 km/h 55 % 0.0 mm
14:57 19.3 °C 10.0 °C 1013.1 hPa West 31.4 km/h 34.6 km/h 55 % 0.0 mm
15:02 19.3 °C 10.0 °C 1013.1 hPa WSW 32.0 km/h 37.5 km/h 55 % 0.0 mm
15:07 19.3 °C 10.0 °C 1013.1 hPa WSW 24.5 km/h 37.5 km/h 55 % 0.0 mm
15:12 19.3 °C 10.0 °C 1013.1 hPa West 24.5 km/h 32.0 km/h 55 % 0.0 mm
15:17 19.3 °C 10.0 °C 1013.1 hPa WSW 14.0 km/h 32.0 km/h 55 % 0.0 mm
15:22 19.3 °C 10.0 °C 1013.1 hPa West 21.6 km/h 28.0 km/h 55 % 0.0 mm
15:27 19.3 °C 10.0 °C 1013.1 hPa West 19.8 km/h 27.0 km/h 55 % 0.0 mm
15:32 19.3 °C 10.0 °C 1013.1 hPa West 16.3 km/h 28.8 km/h 55 % 0.0 mm
15:37 19.3 °C 10.0 °C 1013.1 hPa WSW 23.8 km/h 29.9 km/h 55 % 0.0 mm
15:42 19.3 °C 10.0 °C 1013.1 hPa West 21.6 km/h 36.0 km/h 55 % 0.0 mm
15:47 19.3 °C 10.0 °C 1013.1 hPa WSW 24.8 km/h 36.0 km/h 55 % 0.0 mm
15:52 19.3 °C 10.0 °C 1013.1 hPa WSW 30.2 km/h 41.7 km/h 55 % 0.0 mm
15:57 19.3 °C 10.0 °C 1013.1 hPa WSW 23.0 km/h 41.7 km/h 55 % 0.0 mm
16:02 20.1 °C 12.0 °C 1013.1 hPa West 28.0 km/h 36.7 km/h 59 % 0.0 mm
16:07 20.2 °C 12.0 °C 1013.1 hPa West 27.7 km/h 40.7 km/h 58 % 0.0 mm
16:12 19.6 °C 11.0 °C 1013.1 hPa WSW 35.6 km/h 40.7 km/h 58 % 0.0 mm
16:17 19.6 °C 11.0 °C 1013.1 hPa WSW 28.0 km/h 41.4 km/h 58 % 0.0 mm
16:22 19.6 °C 11.0 °C 1013.1 hPa WSW 38.9 km/h 41.4 km/h 58 % 0.0 mm
16:27 19.6 °C 11.0 °C 1013.1 hPa West 27.4 km/h 38.9 km/h 58 % 0.0 mm
16:32 19.6 °C 11.0 °C 1013.1 hPa NW 16.3 km/h 38.9 km/h 58 % 0.0 mm
16:37 19.6 °C 11.0 °C 1013.1 hPa West 16.9 km/h 33.5 km/h 58 % 0.0 mm
16:42 19.6 °C 11.0 °C 1013.1 hPa West 38.5 km/h 38.9 km/h 58 % 0.0 mm
16:47 19.6 °C 11.0 °C 1013.1 hPa WSW 37.0 km/h 42.5 km/h 58 % 0.0 mm
16:52 19.6 °C 11.0 °C 1013.1 hPa WSW 21.9 km/h 42.5 km/h 58 % 0.0 mm
16:57 19.6 °C 11.0 °C 1013.1 hPa West 33.5 km/h 39.6 km/h 58 % 0.0 mm
17:02 19.6 °C 11.0 °C 1013.1 hPa West 20.6 km/h 38.1 km/h 58 % 0.0 mm
17:07 17.8 °C 11.0 °C 1013.1 hPa West 27.7 km/h 28.8 km/h 66 % 0.0 mm
17:12 17.8 °C 11.0 °C 1013.1 hPa West 15.8 km/h 27.7 km/h 66 % 0.0 mm
17:17 17.8 °C 11.0 °C 1014.1 hPa West 16.6 km/h 28.0 km/h 66 % 0.0 mm
17:22 17.8 °C 11.0 °C 1014.1 hPa West 17.7 km/h 28.0 km/h 66 % 0.0 mm
17:27 17.8 °C 11.0 °C 1014.1 hPa West 22.4 km/h 27.7 km/h 66 % 0.0 mm
17:33 17.8 °C 11.0 °C 1014.1 hPa WSW 17.2 km/h 34.6 km/h 66 % 0.0 mm
17:38 17.8 °C 11.0 °C 1014.1 hPa West 11.9 km/h 34.6 km/h 66 % 0.0 mm
17:43 17.8 °C 11.0 °C 1014.1 hPa SW 23.0 km/h 25.6 km/h 66 % 0.0 mm
17:48 17.8 °C 11.0 °C 1014.1 hPa West 24.8 km/h 26.2 km/h 66 % 0.0 mm
17:53 17.8 °C 11.0 °C 1014.1 hPa West 12.2 km/h 27.4 km/h 66 % 0.0 mm
17:58 17.8 °C 11.0 °C 1014.1 hPa WSW 24.5 km/h 30.9 km/h 66 % 0.0 mm
18:03 17.8 °C 11.0 °C 1014.1 hPa WNW 16.6 km/h 30.9 km/h 66 % 0.0 mm
18:08 17.8 °C 11.0 °C 1014.1 hPa West 16.3 km/h 27.4 km/h 66 % 0.0 mm
18:13 17.8 °C 11.0 °C 1014.1 hPa WSW 17.7 km/h 27.0 km/h 66 % 0.0 mm
18:18 17.8 °C 11.0 °C 1014.1 hPa WSW 18.0 km/h 27.0 km/h 66 % 0.0 mm
18:23 17.8 °C 11.0 °C 1014.1 hPa West 19.8 km/h 26.2 km/h 66 % 0.0 mm
18:28 16.5 °C 12.0 °C 1014.1 hPa WSW 13.0 km/h 24.8 km/h 74 % 0.0 mm
18:33 16.5 °C 12.0 °C 1014.1 hPa WSW 23.3 km/h 23.3 km/h 74 % 0.0 mm
18:38 16.5 °C 12.0 °C 1014.1 hPa WSW 16.3 km/h 23.3 km/h 74 % 0.0 mm
18:43 16.5 °C 12.0 °C 1014.1 hPa West 16.3 km/h 25.3 km/h 74 % 0.0 mm
18:49 16.5 °C 12.0 °C 1015.1 hPa West 15.4 km/h 28.0 km/h 74 % 0.0 mm
18:54 16.5 °C 12.0 °C 1015.1 hPa West 10.8 km/h 28.0 km/h 74 % 0.3 mm
18:59 16.5 °C 12.0 °C 1015.1 hPa West 13.7 km/h 20.9 km/h 74 % 0.3 mm
19:03 16.5 °C 12.0 °C 1015.1 hPa WSW 16.6 km/h 20.9 km/h 74 % 0.3 mm
19:08 16.5 °C 12.0 °C 1015.1 hPa WSW 10.1 km/h 19.8 km/h 74 % 0.3 mm
19:13 16.5 °C 12.0 °C 1015.1 hPa WSW 13.0 km/h 19.8 km/h 74 % 0.3 mm
19:18 15.0 °C 13.0 °C 1015.1 hPa WSW 15.8 km/h 19.8 km/h 86 % 0.3 mm
19:23 15.0 °C 13.0 °C 1015.1 hPa West 16.3 km/h 19.8 km/h 86 % 0.3 mm
19:28 15.0 °C 13.0 °C 1015.1 hPa WSW 13.0 km/h 23.3 km/h 86 % 0.3 mm
19:33 15.0 °C 13.0 °C 1015.1 hPa SW 16.3 km/h 23.3 km/h 86 % 0.3 mm
19:38 15.1 °C 13.0 °C 1015.1 hPa West 12.2 km/h 16.3 km/h 86 % 0.3 mm
19:43 15.1 °C 13.0 °C 1015.1 hPa West 20.9 km/h 20.9 km/h 86 % 0.3 mm
19:48 15.1 °C 13.0 °C 1015.1 hPa West 15.8 km/h 20.9 km/h 86 % 0.3 mm
19:53 15.1 °C 13.0 °C 1015.1 hPa WSW 10.1 km/h 20.9 km/h 86 % 0.0 mm
19:58 15.1 °C 13.0 °C 1015.1 hPa WSW 11.6 km/h 20.1 km/h 86 % 0.0 mm
20:03 15.1 °C 13.0 °C 1015.1 hPa West 13.0 km/h 16.9 km/h 86 % 0.0 mm
20:08 15.1 °C 13.0 °C 1015.1 hPa WSW 15.4 km/h 17.2 km/h 86 % 0.0 mm
20:14 15.1 °C 13.0 °C 1015.1 hPa West 11.9 km/h 17.2 km/h 86 % 0.0 mm
20:19 15.0 °C 13.0 °C 1015.1 hPa WSW 9.0 km/h 15.4 km/h 86 % 0.0 mm
20:24 15.0 °C 13.0 °C 1015.1 hPa West 11.6 km/h 13.0 km/h 87 % 0.0 mm
20:29 15.0 °C 13.0 °C 1015.1 hPa WNW 12.2 km/h 13.0 km/h 87 % 0.0 mm
20:34 14.9 °C 13.0 °C 1015.1 hPa WSW 11.1 km/h 12.6 km/h 87 % 0.0 mm
20:35 14.9 °C 13.0 °C 1015.1 hPa WSW 9.3 km/h 12.6 km/h 87 % 0.0 mm
20:41 14.9 °C 13.0 °C 1015.1 hPa WSW 15.4 km/h 15.8 km/h 87 % 0.0 mm
20:46 14.9 °C 13.0 °C 1015.1 hPa WSW 10.1 km/h 15.8 km/h 87 % 0.0 mm
20:51 14.9 °C 13.0 °C 1015.1 hPa WSW 9.3 km/h 15.4 km/h 87 % 0.0 mm
20:56 14.9 °C 13.0 °C 1015.1 hPa WSW 9.0 km/h 13.0 km/h 87 % 0.3 mm
21:01 14.9 °C 13.0 °C 1015.1 hPa WSW 9.0 km/h 13.0 km/h 87 % 0.3 mm
21:06 14.4 °C 13.0 °C 1015.1 hPa WSW 9.0 km/h 13.0 km/h 92 % 0.3 mm
21:11 14.4 °C 13.0 °C 1015.1 hPa WSW 9.0 km/h 13.0 km/h 92 % 0.5 mm
21:16 14.2 °C 13.0 °C 1015.1 hPa WSW 9.0 km/h 13.0 km/h 93 % 0.5 mm
21:21 14.2 °C 13.0 °C 1015.1 hPa WSW 9.0 km/h 13.0 km/h 94 % 0.8 mm
21:26 14.1 °C 13.0 °C 1015.1 hPa WSW 9.0 km/h 13.0 km/h 95 % 0.8 mm
21:31 14.1 °C 13.0 °C 1015.1 hPa WSW 12.2 km/h 12.2 km/h 95 % 0.8 mm
21:36 14.0 °C 14.0 °C 1015.1 hPa WSW 12.2 km/h 12.2 km/h 96 % 1.3 mm
21:41 14.0 °C 14.0 °C 1015.1 hPa WSW 12.2 km/h 12.2 km/h 96 % 1.3 mm
21:46 13.8 °C 13.0 °C 1015.1 hPa WSW 12.2 km/h 12.2 km/h 95 % 1.3 mm
21:51 13.8 °C 13.0 °C 1015.1 hPa WSW 12.2 km/h 12.2 km/h 95 % 1.3 mm
21:56 13.7 °C 13.0 °C 1015.1 hPa WSW 12.2 km/h 12.2 km/h 96 % 1.3 mm
22:01 13.7 °C 13.0 °C 1015.1 hPa WSW 12.2 km/h 12.2 km/h 96 % 1.3 mm
22:06 13.7 °C 13.0 °C 1015.1 hPa WSW 12.2 km/h 12.2 km/h 97 % 1.0 mm
22:11 13.7 °C 13.0 °C 1015.1 hPa WSW 12.2 km/h 12.2 km/h 97 % 1.0 mm
22:16 13.7 °C 14.0 °C 1015.1 hPa WSW 12.2 km/h 12.2 km/h 98 % 1.3 mm
22:21 13.7 °C 14.0 °C 1015.1 hPa WSW 12.2 km/h 12.2 km/h 98 % 1.3 mm
22:26 13.7 °C 14.0 °C 1015.1 hPa WSW 12.2 km/h 12.2 km/h 98 % 1.8 mm
22:31 13.7 °C 14.0 °C 1015.1 hPa WSW 12.2 km/h 12.2 km/h 98 % 2.3 mm
22:36 13.7 °C 14.0 °C 1015.1 hPa WSW 12.6 km/h 12.6 km/h 98 % 1.8 mm
22:41 13.7 °C 14.0 °C 1015.1 hPa WSW 12.6 km/h 12.6 km/h 98 % 2.3 mm
22:46 13.7 °C 14.0 °C 1015.1 hPa WSW 12.6 km/h 12.6 km/h 98 % 2.3 mm
22:51 13.6 °C 14.0 °C 1015.1 hPa WSW 12.6 km/h 12.6 km/h 98 % 2.3 mm
22:56 13.5 °C 14.0 °C 1015.1 hPa WSW 12.6 km/h 12.6 km/h 98 % 1.8 mm
23:01 13.5 °C 14.0 °C 1015.1 hPa WSW 12.6 km/h 12.6 km/h 98 % 2.3 mm
23:06 13.4 °C 13.0 °C 1015.1 hPa WSW 12.6 km/h 12.6 km/h 98 % 2.3 mm
23:11 13.4 °C 13.0 °C 1015.1 hPa WSW 12.6 km/h 12.6 km/h 98 % 1.8 mm
23:16 13.3 °C 13.0 °C 1015.1 hPa WSW 12.6 km/h 12.6 km/h 98 % 1.8 mm
23:21 13.1 °C 13.0 °C 1015.1 hPa WSW 12.6 km/h 12.6 km/h 98 % 1.8 mm
23:26 13.1 °C 13.0 °C 1015.1 hPa WSW 12.6 km/h 12.6 km/h 98 % 1.3 mm
23:32 13.1 °C 13.0 °C 1015.1 hPa WSW 12.6 km/h 12.6 km/h 98 % 1.0 mm
23:37 13.1 °C 13.0 °C 1015.1 hPa WSW 12.6 km/h 12.6 km/h 98 % 1.0 mm
23:42 12.9 °C 13.0 °C 1015.1 hPa WSW 12.6 km/h 12.6 km/h 98 % 0.5 mm
23:47 12.9 °C 13.0 °C 1015.1 hPa WSW 12.6 km/h 12.6 km/h 98 % 0.5 mm
23:52 12.9 °C 13.0 °C 1015.1 hPa WSW 12.6 km/h 12.6 km/h 98 % 0.5 mm
23:57 12.7 °C 13.0 °C 1015.1 hPa WSW 12.6 km/h 12.6 km/h 98 % 0.5 mm
Le Gheer Warneton
Courtoisie de Weather Underground - 2.25 mb

Mise a jour : 18/12/2017 17:39:11
Généré par Cumulus 1.9.4 (1099)